Skip Page Navigation
NASA JPL Caltech
NASA Logo - Jet Propulsion Laboratory + View the NASA Portal
+ Near-Earth Object (NEO) Program
Search JPL
JPL Home Earth Solar System Stars & Galaxies Technology
JPL Solar System Dynamics
BODIES ORBITS EPHEMERIDES TOOLS PHYSICAL DATA DISCOVERY FAQ SITE MAP
JPL Small-Body Database Browser
Search: [ help ]  
2685 Masursky (1981 JN)
Classification: Main-belt Asteroid          SPK-ID: 2002685
Ephemeris | Orbit Diagram | Orbital Elements | Physical Parameters | Discovery Circumstances ]

[ hide orbit diagram ]
Orbit Diagram
Note: Make sure you have Java enabled on your browser to see the applet. This applet is provided as a 3D orbit visualization tool. The applet was implemented using 2-body methods, and hence should not be used for determining accurate long-term trajectories (over several years or decades) or planetary encounter circumstances. For accurate long-term ephemerides, please instead use our Horizons system.
Orbit Viewer

Additional Notes: the orbits shown in the applet are color coded. The planets are white lines, and the asteroid/comet is a blue line. The bright white line indicates the portion of the orbit that is above the ecliptic plane, and the darker portion is below the ecliptic plane. Likewise for the asteroid/comet orbit, the light blue indicates the portion above the ecliptic plane, and the dark blue the portion below the ecliptic plane.

Orbit Viewer applet originally written and kindly provided by Osamu Ajiki (AstroArts), and further modified by Ron Baalke (JPL).


Orbital Elements at Epoch 2456400.5 (2013-Apr-18.0) TDB
Reference: JPL 53 (heliocentric ecliptic J2000)
 Element Value Uncertainty (1-sigma)   Units 
e .1097770425443841 7.2908e-08  
a 2.568904064386818 2.184e-08 AU
q 2.286897373618185 1.9036e-07 AU
i 12.12789018626736 7.3675e-06 deg
node 215.3872763818708 3.4316e-05 deg
peri 287.8487333338774 4.8426e-05 deg
M 344.7377098302057 3.8085e-05 deg
tp 2456464.258407496779
(2013-Jun-20.75840750)
0.00015933 JED
period 1503.904489004341
4.12
1.9179e-05
5.251e-08
d
yr
n .2393769036744733 3.0527e-09 deg/d
Q 2.85091075515545 2.4237e-08 AU
  Orbit Determination Parameters
   # obs. used (total)      897  
   data-arc span      14382 days (39.38 yr)  
   first obs. used      1973-08-28  
   last obs. used      2013-01-12  
   planetary ephem.      DE405  
   SB-pert. ephem.      SB405-CPV-2  
   condition code      0  
   fit RMS      .51651  
   data source      ORB  
   producer      Otto Matic  
   solution date      2013-Mar-29 14:42:24  

Additional Information
 Earth MOID = 1.33059 AU 
 T_jup = 3.391 
[ show covariance matrix ]

Ephemeris | Orbit Diagram | Orbital Elements | Physical Parameters | Discovery Circumstances ]

Physical Parameter Table
Parameter Symbol Value Units Sigma Reference Notes
absolute magnitude H 12.2 mag n/a PDS3 (MPC 17266)  

2685 Masursky (1981 JN)          Discovered 1981-May-03 by Bowell, E. at Flagstaff (AM) (688)
Discovered at the Anderson Mesa station, which is operated by the Lowell Observatory.
Reference: DISCOVERY.DBLast Updated: 2003-08-29

Alternate Designations
 1981 JN = 1950 VO = 1973 QF = 1975 XJ5 = 1977 KU 
Ephemeris | Orbit Diagram | Orbital Elements | Physical Parameters | Discovery Circumstances ]
ABOUT SSD CREDITS/AWARDS PRIVACY/COPYRIGHT GLOSSARY LINKS
FirstGov 2013-May-25 05:44 UT
(server date/time)  
NASA Home Page
Site Manager:   Donald K. Yeomans
Webmaster  Alan B. Chamberlin